Powrót do katalogu

AMAZONAS

AktywnyŁącznośćGEO
NORAD 28393·PAYLOAD·🇧🇷 Brazil

Wystrzelony Aug 4, 2004 z Baikonur Cosmodrome

Loading…

TLE

ŚwieżeSource: Space-Track

Epoka: Sep 14, 2026, 12:29 UTC

1 28393U 04031A   26257.52058617  .00000009  00000-0  00000-0 0  9998
2 28393   9.6185  58.0286 0013196 103.7003 259.7966  0.98456747 80360

Śledź AMAZONAS w czasie rzeczywistym z AllMySat

Download on the App Store